STARLINK-11385, 62014

Orbit data source: Space-Track

STARLINK-11385, 62014 is a payload satellite owned by SpaceX/Seattle (US) in LEO that was launched on Mon, 18 Nov 2024 UTC via an FALCON 9 launch vehicle from the Air Force Western Test Range (AFWTR). Payloads include a variety of satellites, spacecraft, and rockets equipped with specific instruments for various scientific and technological missions. These include communications satellites like Starlink; space stations such as the ISS; scientific satellites like the Hubble; Earth observation satellites from companies like Planet Labs, Umbra, and HawkEye 360; GPS; miniature CubeSats for education and research; and military/defense satellites.

Loading next visibility...
STARLINK-11385 details
Identifier
62014, 2024-213G
Orbit
LEO
Last TLE update14 hours ago
Origin
Flag of USSpaceX/Seattle (US)
ManufacturerSpaceX/Seattle
MissionOperational spacecraft
Bus & MotorSTARLINK V2M, Unknown motor
Mass730 kg wet, ~700 kg dry
Launch date (UTC)
2024-11-18 (1 month ago)
Launch vehicle
FALCON 9
Launch site
Air Force Western Test Range (AFWTR)
Object type
Payload
Rocket body
Debris
Shape & HBRUnknown
Radar Cross SectionLarge (>1 m²)

Expand to show TLE details & history

TLE from 14 hours ago
0 STARLINK-11385
1 62014U 24213G   24360.85253893 -.00001557  00000-0 -55200-5 0  9990
2 62014  53.1535  47.3081 0001216  97.5961 262.5198 15.76717128  6955
Epoch: 2024-12-25T20:27Z
Definitive object data (Epoch: 2024-12-25T20:27:39.363Z)
Latitude-0.00002°
Longitude5.55373°
Altitude340.773 km
Speed7.705 km/s
True Right ascension03h 09m 13s
True Declination0° 00' 00"
Sunlit
Object was in full shadow at TLE epoch
Visualization TLE readout
Latitude38.56375°
Longitude39.11268°
Altitude342.492 km
Speed7.709 km/s
Apparent Right ascension01h 46m 11s
Apparent Declination1° 01' 11"
Sunlit
Object is in full shadow
Visualization observer readout
Local Sidereal Time09:43:12
Azimuth290.56° WNW
Elevation-21.306°
Doppler factor1
Orbital elements
Apogee altitude340.829 km
Perigee altitude339.195 km
Semi-major axis6,718.149 km
Eccentricity0.0001216
Inclination53.1535°
RAAN47.3081°
Arg. of periapsis97.5961°
True anomaly262.50598°
Mean anomaly262.5198°
Eccentric anomaly262.51289°
Mean motion3.94157 °/min
BSTAR-0.00000552
Orbital period91.33 mins
Loading maneuver chart data...
Loading historical data...
Loading historical data...
Loading historical data...
Loading historical data...
Loading historical data...
Loading historical data...
Loading historical data...

STARLINK-11385 Visibility forecast

Observer location: undefined°, undefined

Span
Click to sort rows by Start time (UTC) header in descending order
Start Az.
Max El. time (UTC)
Max El. Az.
Max El.
End time (UTC)
End Az.
4 mins2024-12-27 06:08:02.112Z248.984° W2024-12-27 06:10:02.112Z337.467° NNW38.416°2024-12-27 06:12:02.112Z38.542° NE
|